Regional Weather Roundup
Issued by NWS

Home | Current Version | Previous Version | Graphics & Text | Print | Product List | Glossary On
Versions: 1 2 3 4 5 6 7 8 9 10 11 12 13 14 15 16 17 18 19 20 21 22 23 24 25 26 27 28 29 30 31 32 33 34 35 36 37 38 39 40 41 42 43 44 45 46 47 48 49 50
000
ASUS43 KFSD 211610
RWRSD

WEATHER ROUNDUP FOR SOUTH DAKOTA
NATIONAL WEATHER SERVICE SIOUX FALLS SD
1100 AM CDT SUN SEP 21 2014

NOTE: "FAIR" INDICATES FEW OR NO CLOUDS BELOW 12,000 FEET WITH NO
SIGNIFICANT WEATHER AND/OR OBSTRUCTIONS TO VISIBILITY.


SDZ001>005-009-010-012>017-211700-
NORTHWEST AND NORTH CENTRAL SOUTH DAKOTA

CITY           SKY/WX    TMP DP  RH WIND       PRES   REMARKS
BUFFALO          N/A     62  37  39 W3        30.28S
FAITH            N/A     63  41  44 NW8       30.33R
MOBRIDGE       SUNNY     54  45  71 W7        30.28R
$$

SDZ012>016-024>037-041>051-057-063-072>074-211700-
SOUTHWEST AND SOUTH CENTRAL SOUTH DAKOTA

CITY           SKY/WX    TMP DP  RH WIND       PRES   REMARKS
RAPID CTY ARPT SUNNY     64  38  38 CALM      30.36S
PIERRE         SUNNY     63  43  48 W7        30.30R
CUSTER         SUNNY     60  35  39 VRB7      30.42S
ELLSWORTH AFB  SUNNY     62  37  39 CALM      30.36S
PHILIP         SUNNY     66  43  43 VRB3      30.33S
PINE RIDGE     SUNNY     61  39  44 CALM      30.37S
WINNER         FAIR      63  41  44 NW7       30.33R
$$

SDZ004>011-016>023-039-040-211700-
NORTHEAST SOUTH DAKOTA

CITY           SKY/WX    TMP DP  RH WIND       PRES   REMARKS
ABERDEEN       SUNNY     63  49  60 N9        30.27R
WATERTOWN      SUNNY     62  48  60 N16       30.23R
SISSETON         N/A     61  51  70 N15G21    30.22R
$$

SDZ017-020-022-023-036>040-048>070-211700-
SOUTHEAST SOUTH DAKOTA

CITY           SKY/WX    TMP DP  RH WIND       PRES   REMARKS
SIOUX FALLS    MOSUNNY   64  47  53 N15       30.23R
HURON          SUNNY     62  46  55 N9        30.27R
CHAMBERLAIN    SUNNY     62  44  50 NW5       30.30R
MITCHELL         N/A     64  46  52 NW10      30.28R
YANKTON        SUNNY     61  46  59 NW10      30.26S
$$

ABBREVIATIONS USED IN REMARKS
   TC - TEMPERATURE IN CELSIUS
  WCI - WIND CHILL INDEX
   HX - HEAT INDEX
  VSB - VISIBILITY




USA.gov is the U.S. government's official web portal to all federal, state and local government web resources and services.